Togiak, AK

7:15 AM AKDT on May 28, 2017 (GMT -0800)
Togiak

Weather History for PATG - September, 2013

Change the Weather History Date:

Wednesday, September 18, 2013

  Actual Average Record
Temperature  
Mean Temperature 44 °F -  
Max Temperature 50 °F 49 °F 57 °F (2014)
Min Temperature 37 °F 36 °F 26 °F (2000)
Degree Days  
Heating Degree Days 22    
Moisture  
Dew Point 31 °F    
Average Humidity 63    
Maximum Humidity 87    
Minimum Humidity 43    
Precipitation  
Precipitation 0.00 in - - ()
Sea Level Pressure  
Sea Level Pressure 29.81 in    
Wind  
Wind Speed 10 mph (NW)    
Max Wind Speed 17 mph    
Max Gust Speed 21 mph    
Visibility 10 miles    
Events      
Averages and records for this station are not official NWS values.
T = Trace of Precipitation, MM = Missing Value Source: NWS Daily Summary

Daily Weather History Graph

Daily Weather History Graph

Search for Another Location

Airport or City:

Trip Planner

Search our weather history database for the weather conditions in past years. The results will help you decide how hot, cold, wet, or windy it might be!

Date:

Astronomy

Sep. 18, 2013 Rise Set
Actual Time 8:18 AM AKDT 8:51 PM AKDT
Civil Twilight 7:37 AM AKDT 9:32 PM AKDT
Nautical Twilight 6:48 AM AKDT 10:21 PM AKDT
Astronomical Twilight 5:53 AM AKDT 11:14 PM AKDT
Moon 8:13 PM AKDT (9/18) 7:33 AM AKDT (9/18)
Length of Visible Light 13h 54m
Length of Day
12h 33m
Waxing Gibbous, 99% of the Moon is Illuminated
Sep 18
Waxing Gibbous
Sep 19
Full
Sep 26
Last Quarter
Oct 4
New
Oct 11
First Quarter

Hourly Weather History & Observations

Time (AKDT) Temp. Windchill Dew Point Humidity Pressure Visibility Wind Dir Wind Speed Gust Speed Precip Events Conditions
12:16 AM 48.2 °F - 30.2 °F 50% 29.79 in 10.0 mi North 5.8 mph 17.3 mph N/A   Clear
12:36 AM 44.6 °F 39.2 °F 32.0 °F 61% 29.78 in 10.0 mi NNW 10.4 mph - N/A   Clear
12:56 AM 44.6 °F 38.8 °F 33.8 °F 66% 29.77 in 10.0 mi NNW 11.5 mph - N/A   Clear
1:16 AM 42.8 °F 37.5 °F 33.8 °F 70% 29.78 in 10.0 mi NNW 9.2 mph - N/A   Clear
1:36 AM 44.6 °F 42.2 °F 33.8 °F 66% 29.79 in 10.0 mi North 4.6 mph - N/A   Clear
1:56 AM 42.8 °F 38.6 °F 33.8 °F 70% 29.79 in 10.0 mi NW 6.9 mph - N/A   Clear
2:16 AM 41.0 °F 35.8 °F 33.8 °F 76% 29.80 in 10.0 mi WNW 8.1 mph - N/A   Clear
2:36 AM 39.2 °F 32.5 °F 33.8 °F 81% 29.80 in 10.0 mi WNW 10.4 mph - N/A   Clear
2:56 AM 39.2 °F 35.9 °F 33.8 °F 81% 29.80 in 10.0 mi WNW 4.6 mph - N/A   Clear
3:16 AM 41.0 °F 32.8 °F 33.8 °F 76% 29.81 in 10.0 mi WNW 16.1 mph - N/A   Clear
3:36 AM 41.0 °F 33.9 °F 35.6 °F 81% 29.82 in 10.0 mi WNW 12.7 mph - N/A   Clear
3:56 AM 42.8 °F 36.2 °F 35.6 °F 76% 29.82 in 10.0 mi NW 12.7 mph 19.6 mph N/A   Clear
4:16 AM 41.0 °F 35.2 °F 33.8 °F 76% 29.83 in 10.0 mi West 9.2 mph - N/A   Clear
4:36 AM 39.2 °F 32.0 °F 33.8 °F 81% 29.84 in 10.0 mi West 11.5 mph - N/A   Clear
4:56 AM 37.4 °F 30.8 °F 33.8 °F 87% 29.83 in 10.0 mi NW 9.2 mph - N/A   Clear
5:16 AM 39.2 °F 35.0 °F 33.8 °F 81% 29.83 in 10.0 mi West 5.8 mph - N/A   Clear
5:36 AM 39.2 °F 33.6 °F 33.8 °F 81% 29.83 in 10.0 mi NW 8.1 mph - N/A   Clear
5:56 AM 39.2 °F 31.6 °F 33.8 °F 81% 29.83 in 10.0 mi NW 12.7 mph - N/A   Clear
6:16 AM 39.2 °F 31.6 °F 33.8 °F 81% 29.83 in 10.0 mi NW 12.7 mph - N/A   Clear
6:36 AM 39.2 °F 31.2 °F 32.0 °F 75% 29.83 in 10.0 mi NW 13.8 mph - N/A   Clear
6:56 AM 39.2 °F 30.8 °F 30.2 °F 70% 29.83 in 10.0 mi NW 15.0 mph 20.7 mph N/A   Clear
7:16 AM 39.2 °F 31.6 °F 30.2 °F 70% 29.83 in 10.0 mi NNW 12.7 mph - N/A   Clear
7:36 AM 39.2 °F 31.2 °F 30.2 °F 70% 29.83 in 10.0 mi NW 13.8 mph - N/A   Clear
7:56 AM 37.4 °F 33.8 °F 30.2 °F 75% 29.83 in 10.0 mi NW 4.6 mph - N/A   Clear
8:16 AM 39.2 °F 34.2 °F 30.2 °F 70% 29.83 in 10.0 mi NW 6.9 mph - N/A   Clear
8:36 AM 37.4 °F 31.4 °F 30.2 °F 75% 29.83 in 10.0 mi North 8.1 mph - N/A   Clear
8:56 AM 39.2 °F 34.2 °F 30.2 °F 70% 29.82 in 10.0 mi North 6.9 mph - N/A   Clear
9:16 AM 37.4 °F 32.8 °F 30.2 °F 75% 29.83 in 10.0 mi NW 5.8 mph - N/A   Clear
9:36 AM 39.2 °F 32.5 °F 30.2 °F 70% 29.83 in 10.0 mi NNW 10.4 mph - N/A   Clear
9:56 AM 41.0 °F 34.7 °F 30.2 °F 65% 29.84 in 10.0 mi NNW 10.4 mph - N/A   Clear
10:16 AM 42.8 °F 35.8 °F 30.2 °F 61% 29.84 in 10.0 mi NW 13.8 mph - N/A   Clear
10:36 AM 41.0 °F 35.8 °F 30.2 °F 65% 29.85 in 10.0 mi NNW 8.1 mph - N/A   Clear
10:56 AM 42.8 °F 36.6 °F 32.0 °F 66% 29.84 in 10.0 mi NW 11.5 mph 16.1 mph N/A   Clear
11:16 AM 42.8 °F 35.4 °F 30.2 °F 61% 29.84 in 10.0 mi NW 15.0 mph - N/A   Clear
11:36 AM 42.8 °F 34.8 °F 30.2 °F 61% 29.85 in 10.0 mi NNW 17.3 mph - N/A   Clear
11:56 AM 44.6 °F 38.1 °F 32.0 °F 61% 29.85 in 10.0 mi NNW 13.8 mph - N/A   Clear
12:16 PM 44.6 °F 39.2 °F 30.2 °F 57% 29.84 in 10.0 mi NNW 10.4 mph - N/A   Clear
12:36 PM 46.4 °F 42.4 °F 30.2 °F 53% 29.84 in 10.0 mi NNW 8.1 mph - N/A   Clear
12:56 PM 46.4 °F 41.5 °F 30.2 °F 53% 29.84 in 10.0 mi NNW 10.4 mph - N/A   Clear
1:16 PM 46.4 °F 41.5 °F 30.2 °F 53% 29.83 in 10.0 mi North 10.4 mph 16.1 mph N/A   Clear
1:36 PM 46.4 °F 42.4 °F 28.4 °F 50% 29.83 in 10.0 mi NNW 8.1 mph - N/A   Clear
1:56 PM 46.4 °F 41.5 °F 28.4 °F 50% 29.83 in 10.0 mi NW 10.4 mph - N/A   Clear
2:16 PM 48.2 °F - 28.4 °F 46% 29.83 in 10.0 mi WNW 6.9 mph - N/A   Clear
2:36 PM 48.2 °F - 28.4 °F 46% 29.82 in 10.0 mi NNW 8.1 mph - N/A   Clear
2:56 PM 50.0 °F - 28.4 °F 43% 29.82 in 10.0 mi NW 10.4 mph - N/A   Clear
3:16 PM 50.0 °F - 28.4 °F 43% 29.82 in 10.0 mi NW 12.7 mph - N/A   Clear
3:36 PM 48.2 °F - 28.4 °F 46% 29.82 in 10.0 mi NW 10.4 mph - N/A   Clear
3:56 PM 50.0 °F - 28.4 °F 43% 29.82 in 10.0 mi WNW 12.7 mph - N/A   Clear
4:16 PM 48.2 °F - 28.4 °F 46% 29.81 in 10.0 mi WNW 16.1 mph - N/A   Clear
4:36 PM 48.2 °F - 30.2 °F 50% 29.81 in 10.0 mi NW 13.8 mph 20.7 mph N/A   Clear
4:56 PM 48.2 °F - 28.4 °F 46% 29.81 in 10.0 mi NNW 16.1 mph 19.6 mph N/A   Clear
5:16 PM 46.4 °F 40.7 °F 30.2 °F 53% 29.80 in 10.0 mi NW 12.7 mph - N/A   Clear
5:36 PM 48.2 °F - 30.2 °F 50% 29.80 in 10.0 mi NW 12.7 mph - N/A   Clear
5:56 PM 48.2 °F - 30.2 °F 50% 29.80 in 10.0 mi NNW 15.0 mph - N/A   Clear
6:16 PM 48.2 °F - 30.2 °F 50% 29.79 in 10.0 mi NW 13.8 mph 18.4 mph N/A   Clear
6:36 PM 48.2 °F - 30.2 °F 50% 29.79 in 10.0 mi NW 15.0 mph 19.6 mph N/A   Clear
6:56 PM 46.4 °F 40.1 °F 30.2 °F 53% 29.79 in 10.0 mi NW 15.0 mph 20.7 mph N/A   Clear
7:16 PM 46.4 °F 40.4 °F 30.2 °F 53% 29.79 in 10.0 mi NW 13.8 mph 20.7 mph N/A   Clear
7:36 PM 44.6 °F 38.4 °F 30.2 °F 57% 29.79 in 10.0 mi NW 12.7 mph 18.4 mph N/A   Clear
7:56 PM 44.6 °F 38.1 °F 30.2 °F 57% 29.79 in 10.0 mi NW 13.8 mph - N/A   Mostly Cloudy
8:16 PM 44.6 °F 38.8 °F 30.2 °F 57% 29.79 in 10.0 mi WNW 11.5 mph 17.3 mph N/A   Scattered Clouds
8:36 PM 42.8 °F 37.0 °F 30.2 °F 61% 29.79 in 10.0 mi NW 10.4 mph - N/A   Partly Cloudy
8:56 PM 42.8 °F 37.0 °F 30.2 °F 61% 29.80 in 10.0 mi NNW 10.4 mph - N/A   Clear
9:16 PM 42.8 °F 37.0 °F 30.2 °F 61% 29.79 in 10.0 mi NW 10.4 mph - N/A   Clear
9:36 PM 42.8 °F 37.0 °F 30.2 °F 61% 29.79 in 10.0 mi NW 10.4 mph - N/A   Partly Cloudy
9:56 PM 42.8 °F 38.6 °F 30.2 °F 61% 29.80 in 10.0 mi NNW 6.9 mph - N/A   Partly Cloudy
10:16 PM 42.8 °F 39.3 °F 30.2 °F 61% 29.79 in 10.0 mi NW 5.8 mph - N/A   Mostly Cloudy
10:36 PM 42.8 °F 40.1 °F 30.2 °F 61% 29.80 in 10.0 mi NNW 4.6 mph - N/A   Overcast
10:56 PM 41.0 °F 37.1 °F 30.2 °F 65% 29.79 in 10.0 mi North 5.8 mph - N/A   Overcast
11:16 PM 41.0 °F 36.4 °F 30.2 °F 65% 29.79 in 10.0 mi NNE 6.9 mph - N/A   Overcast
11:36 PM 42.8 °F 37.0 °F 30.2 °F 61% 29.79 in 10.0 mi NNW 10.4 mph - N/A   Overcast
11:56 PM 41.0 °F 37.1 °F 30.2 °F 65% 29.79 in 10.0 mi NNW 5.8 mph - N/A   Overcast